Location: Isle of Man Observatory
(54.1776°N, 4.6264°W)
Time: 12:39:28
(UTC+01:00)

N. Korean satellite - Visible Passes

Search period start: 23 January 2019 00:00
Search period end: 02 February 2019 00:00
Orbit: 458 x 509 km, 97.2° (Epoch: 22 January)

Date Brightness Start Highest point End Pass type
(mag) Time Alt. Az. Time Alt. Az. Time Alt. Az.
23 Jan 6.7 07:45:42 10° NNE 07:49:27 81° ESE 07:53:07 10° SSW visible
23 Jan 6.6 18:27:29 10° SSE 18:31:11 85° ENE 18:34:58 10° NNW visible
23 Jan 10.2 20:03:47 10° WSW 20:05:12 12° W 20:06:37 10° WNW visible
24 Jan 7.9 07:21:08 10° NNE 07:24:43 44° E 07:28:14 10° S visible
24 Jan 9.6 19:37:28 10° SW 19:40:15 20° W 19:43:04 10° NW visible
25 Jan 9.0 06:56:46 10° NE 06:59:54 25° E 07:02:59 10° SSE visible
25 Jan 7.2 08:30:01 10° N 08:33:26 36° WNW 08:36:48 10° SW visible
25 Jan 8.6 19:12:00 10° SSW 19:15:24 33° W 19:18:51 10° NNW visible
26 Jan 9.9 06:32:48 10° NE 06:35:00 15° E 06:37:10 10° SE visible
26 Jan 6.6 08:05:10 10° N 08:08:51 63° WNW 08:12:28 10° SSW visible
26 Jan 7.3 18:46:57 10° S 18:50:38 60° W 18:54:21 10° NNW visible
27 Jan 6.9 07:40:28 10° NNE 07:44:11 71° ESE 07:47:49 10° S visible
27 Jan 6.6 18:22:13 10° SSE 18:25:56 76° ENE 18:29:42 10° N visible
27 Jan 10.1 19:58:02 10° WSW 19:59:52 13° W 20:01:44 10° WNW visible
28 Jan 8.2 07:15:56 10° NNE 07:19:26 39° E 07:22:51 10° SSE visible
28 Jan 9.5 19:31:59 10° SW 19:34:57 22° W 19:37:56 10° NW visible
29 Jan 9.3 06:51:37 10° NE 06:54:35 22° E 06:57:30 10° SE visible
29 Jan 7.1 08:24:42 10° N 08:28:11 39° WNW 08:31:36 10° SW visible
29 Jan 8.4 19:06:36 10° SSW 19:10:06 37° W 19:13:38 10° NNW visible
30 Jan 10.1 06:27:48 10° ENE 06:29:39 13° E 06:31:28 10° ESE visible
30 Jan 6.5 07:59:53 10° N 08:03:35 71° WNW 08:07:11 10° SSW visible
30 Jan 7.1 18:41:37 10° S 18:45:21 68° W 18:49:06 10° NNW visible
31 Jan 7.1 07:35:13 10° NNE 07:38:53 63° ESE 07:42:28 10° S visible
31 Jan 10.0 19:52:22 10° WSW 19:54:32 15° W 19:56:42 10° NW visible
01 Feb 8.4 07:10:43 10° NNE 07:14:06 34° E 07:17:24 10° SSE visible
01 Feb 9.3 19:26:30 10° SSW 19:29:37 24° W 19:32:44 10° NW visible
